Elkins, WV

1:22 PM EST on December 07, 2016 (GMT -0500)
Elkins-Randolph County

Weather History for KEKN - May, 2014

Change the Weather History Date:

Friday, May 2, 2014

  Actual Average Record
Temperature  
Mean Temperature 48 °F 54 °F  
Max Temperature 58 °F 67 °F 85 °F (1910)
Min Temperature 38 °F 41 °F 22 °F (1978)
Degree Days  
Heating Degree Days 17 11  
Month to date heating degree days 27 11  
Since 1 July heating degree days 5834 5574  
Cooling Degree Days 0 0  
Month to date cooling degree days 0 0  
Year to date cooling degree days 2 3  
Moisture  
Dew Point 33 °F    
Average Humidity 62    
Maximum Humidity 85    
Minimum Humidity 39    
Precipitation  
Precipitation 0.00 in 0.14 in 1.41 in (1985)
Month to date precipitation 0.04 0.14  
Year to date precipitation 11.43 14.23  
Snow  
Snow 0.00 in - - ()
Month to date snowfall 0.0  
Since 1 September snowfall 92.3  
Snow Depth 0.00 in    
Sea Level Pressure  
Sea Level Pressure 29.91 in    
Wind  
Wind Speed 7 mph (West)    
Max Wind Speed 17 mph    
Max Gust Speed 25 mph    
Visibility 10 miles    
Events      
T = Trace of Precipitation, MM = Missing Value Source: NWS Daily Summary

Daily Weather History Graph

Daily Weather History Graph

Search for Another Location

Airport or City:

Trip Planner

Search our weather history database for the weather conditions in past years. The results will help you decide how hot, cold, wet, or windy it might be!

Date:

Astronomy

May. 02, 2014 Rise Set
Actual Time 6:20 AM EDT 8:12 PM EDT
Civil Twilight 5:51 AM EDT 8:41 PM EDT
Nautical Twilight 5:16 AM EDT 9:17 PM EDT
Astronomical Twilight 4:39 AM EDT 9:54 PM EDT
Moon 8:56 AM EDT (5/2) 11:33 PM EDT (5/2)
Length of Visible Light 14h 50m
Length of Day
13h 52m
Waxing Crescent, 12% of the Moon is Illuminated
May 2
Waxing Crescent
May 6
First Quarter
May 14
Full
May 21
Last Quarter
May 28
New

Hourly Weather History & Observations

Time (EDT) Temp. Dew Point Humidity Pressure Visibility Wind Dir Wind Speed Gust Speed Precip Events Conditions
12:51 AM 51.1 °F 33.1 °F 50% 29.91 in 10.0 mi West 3.5 mph - N/A   Overcast
1:51 AM 51.8 °F 32.0 °F 47% 29.89 in 10.0 mi WSW 8.1 mph - N/A   Overcast
2:51 AM 48.9 °F 33.1 °F 54% 29.88 in 10.0 mi SW 4.6 mph - N/A   Overcast
3:51 AM 48.9 °F 33.1 °F 54% 29.88 in 10.0 mi WSW 3.5 mph - N/A   Overcast
4:51 AM 48.9 °F 32.0 °F 52% 29.87 in 10.0 mi WSW 8.1 mph - N/A   Overcast
5:51 AM 48.9 °F 33.1 °F 54% 29.88 in 10.0 mi West 10.4 mph - N/A   Overcast
6:51 AM 48.0 °F 33.1 °F 56% 29.90 in 10.0 mi West 8.1 mph 16.1 mph N/A   Mostly Cloudy
7:51 AM 48.9 °F 34.0 °F 56% 29.91 in 10.0 mi SW 5.8 mph 18.4 mph N/A   Overcast
8:51 AM 48.9 °F 34.0 °F 56% 29.93 in 10.0 mi WSW 9.2 mph - N/A   Mostly Cloudy
9:51 AM 50.0 °F 33.1 °F 52% 29.93 in 10.0 mi WSW 12.7 mph - N/A   Overcast
10:51 AM 51.1 °F 33.1 °F 50% 29.93 in 10.0 mi West 12.7 mph 20.7 mph N/A   Overcast
11:51 AM 52.0 °F 34.0 °F 50% 29.93 in 10.0 mi WNW 5.8 mph - N/A   Overcast
12:51 PM 53.1 °F 32.0 °F 45% 29.91 in 10.0 mi West 8.1 mph - N/A   Overcast
1:51 PM 55.0 °F 32.0 °F 42% 29.91 in 10.0 mi WSW 13.8 mph 20.7 mph N/A   Overcast
2:51 PM 55.9 °F 33.1 °F 42% 29.90 in 10.0 mi WSW 13.8 mph - N/A   Overcast
3:51 PM 55.9 °F 33.1 °F 42% 29.90 in 10.0 mi WNW 11.5 mph 16.1 mph N/A   Overcast
4:51 PM 57.0 °F 32.0 °F 39% 29.90 in 10.0 mi West 6.9 mph - N/A   Overcast
5:51 PM 55.9 °F 32.0 °F 40% 29.91 in 10.0 mi West 10.4 mph - N/A   Overcast
6:51 PM 55.0 °F 32.0 °F 42% 29.92 in 10.0 mi West 5.8 mph - N/A   Overcast
7:51 PM 54.0 °F 33.1 °F 45% 29.92 in 10.0 mi Calm Calm - N/A   Overcast
8:51 PM 50.0 °F 37.0 °F 61% 29.93 in 10.0 mi Calm Calm - N/A   Overcast
9:51 PM 48.9 °F 37.9 °F 66% 29.93 in 10.0 mi Calm Calm - N/A   Overcast
10:51 PM 43.0 °F 36.0 °F 76% 29.94 in 10.0 mi Calm Calm - N/A   Partly Cloudy
11:51 PM 39.9 °F 35.1 °F 83% 29.94 in 10.0 mi Calm Calm - N/A   Partly Cloudy